Time,TemperatureF,DewpointF,PressureIn,WindDirection,WindDirectionDegrees,WindSpeedMPH,WindSpeedGustMPH,Humidity,HourlyPrecipIn,Conditions,Clouds,dailyrainin,SoftwareType,DateUTC
2013-03-15 21:31:00,56.1,48.0,30.00,NW,326,0.0,-999.0,74,-99.99,,,0.00,meteohub,2013-03-16 04:31:00,
2013-03-15 21:35:00,55.9,47.8,30.01,NW,326,0.0,-999.0,74,-99.99,,,0.00,meteohub,2013-03-16 04:35:00,
2013-03-15 21:37:00,55.6,47.8,30.01,NW,326,0.0,-999.0,75,-99.99,,,0.00,meteohub,2013-03-16 04:37:00,
2013-03-15 21:43:00,55.2,47.8,30.01,NW,326,0.0,1.0,76,0.00,,,0.00,meteohub,2013-03-16 04:43:00,
2013-03-15 21:48:00,54.9,47.8,30.01,NW,326,0.0,1.0,77,0.00,,,0.00,meteohub,2013-03-16 04:48:00,
2013-03-15 21:53:00,54.7,48.0,30.02,NW,326,0.0,1.0,78,0.00,,,0.00,meteohub,2013-03-16 04:53:00,
2013-03-15 21:58:00,54.3,47.7,30.02,SW,230,1.0,1.0,78,0.00,,,0.00,meteohub,2013-03-16 04:58:00,
2013-03-15 22:03:00,54.1,47.8,30.02,SW,230,0.0,1.0,79,0.00,,,0.00,meteohub,2013-03-16 05:03:00,
2013-03-15 22:08:00,54.0,47.7,30.02,SW,230,0.0,1.0,79,0.00,,,0.00,meteohub,2013-03-16 05:08:00,
2013-03-15 22:13:00,53.6,47.3,30.02,SW,230,0.0,1.0,79,0.00,,,0.00,meteohub,2013-03-16 05:13:00,
2013-03-15 22:18:00,53.2,47.3,30.02,SW,230,0.0,1.0,80,0.00,,,0.00,meteohub,2013-03-16 05:18:00,
2013-03-15 22:23:00,53.1,47.3,30.02,SW,232,1.0,1.0,81,0.00,,,0.00,meteohub,2013-03-16 05:23:00,
2013-03-15 22:28:00,52.9,47.3,30.02,SW,232,1.0,1.0,81,0.00,,,0.00,meteohub,2013-03-16 05:28:00,
2013-03-15 22:33:00,52.9,47.3,30.02,SW,232,0.0,1.0,81,0.00,,,0.00,meteohub,2013-03-16 05:33:00,
2013-03-15 22:38:00,52.5,46.9,30.01,SW,232,0.0,1.0,81,0.00,,,0.00,meteohub,2013-03-16 05:38:00,
2013-03-15 22:43:00,52.3,46.8,30.01,SW,232,0.0,1.0,81,0.00,,,0.00,meteohub,2013-03-16 05:43:00,
2013-03-15 22:48:00,52.2,46.8,30.01,SW,232,0.0,1.0,82,0.00,,,0.00,meteohub,2013-03-16 05:48:00,
2013-03-15 22:53:00,52.2,46.8,30.02,SW,232,0.0,1.0,82,0.00,,,0.00,meteohub,2013-03-16 05:53:00,
2013-03-15 22:58:00,52.0,46.6,30.02,SW,232,0.0,1.0,82,0.00,,,0.00,meteohub,2013-03-16 05:58:00,
2013-03-15 23:04:00,51.6,46.2,30.02,SW,232,0.0,1.0,82,0.00,,,0.00,meteohub,2013-03-16 06:04:00,
2013-03-15 23:09:00,51.4,46.4,30.02,SW,232,1.0,1.0,83,0.00,,,0.00,meteohub,2013-03-16 06:09:00,
2013-03-15 23:14:00,51.3,46.2,30.02,SW,226,0.0,1.0,83,0.00,,,0.00,meteohub,2013-03-16 06:14:00,
2013-03-15 23:19:00,51.1,46.0,30.02,SW,226,0.0,1.0,83,0.00,,,0.00,meteohub,2013-03-16 06:19:00,
2013-03-15 23:24:00,50.7,45.7,30.03,SW,226,0.0,1.0,83,0.00,,,0.00,meteohub,2013-03-16 06:24:00,
2013-03-15 23:29:00,50.5,45.9,30.03,SW,226,0.0,1.0,84,0.00,,,0.00,meteohub,2013-03-16 06:29:00,
2013-03-15 23:34:00,50.4,45.7,30.03,SW,226,0.0,1.0,84,0.00,,,0.00,meteohub,2013-03-16 06:34:00,
2013-03-15 23:39:00,50.2,45.5,30.02,SW,226,0.0,1.0,84,0.00,,,0.00,meteohub,2013-03-16 06:39:00,
2013-03-15 23:44:00,50.0,45.3,30.02,SW,226,0.0,1.0,84,0.00,,,0.00,meteohub,2013-03-16 06:44:00,
2013-03-15 23:49:00,49.8,45.5,30.02,SW,226,0.0,1.0,85,0.00,,,0.00,meteohub,2013-03-16 06:49:00,
2013-03-15 23:55:00,49.6,45.3,30.02,SW,226,0.0,1.0,85,0.00,,,0.00,meteohub,2013-03-16 06:55:00,